Hourly Data Report for September 06, 2017

All times are specified in Local Standard Time (LST). Add 1 hour to adjust for Daylight Saving Time where and when it is observed.

BAKER LAKE A
NUNAVUT

64°17'56.000" N
96°04'40.000" W
18.60 m
2300503
71926
YBK

Download Data

Hourly Data (September 2017)
Hourly Data Report for September 6, 2017
Temp Definition
°C
Dew Point Temp Definition
°C
Rel Hum Definition
%
Wind Dir Definition
10's deg

Wind Spd Definition
km/h
Visibility Definition
km
Stn Press Definition
kPa
Hmdx Definition


Wind Chill Definition


Weather Definition


TIME
00:00 Legend Double Dagger 4.7 2.0 83 35 9 24.1 101.51     Mostly Cloudy
01:00 Legend Double Dagger 5.0 1.9 80 35 8 24.1 101.52     LegendNANA
02:00 Legend Double Dagger 5.1 1.4 77 35 8 24.1 101.54     LegendNANA
03:00 Legend Double Dagger 5.1 1.2 76 1 5 24.1 101.54     Mostly Cloudy
04:00 Legend Double Dagger 3.9 0.7 80 33 5 24.1 101.54     LegendNANA
05:00 Legend Double Dagger 4.4 0.8 78 32 5 32.2 101.57     LegendNANA
06:00 Legend Double Dagger 4.6 0.7 76 36 3 32.2 101.59     Mostly Cloudy
07:00 Legend Double Dagger 5.4 0.5 71 7 13 32.2 101.60     LegendNANA
08:00 Legend Double Dagger 6.0 0.3 67 8 13 32.2 101.59     LegendNANA
09:00 Legend Double Dagger 6.6 0.6 66 11 9 32.2 101.60     Cloudy
10:00 Legend Double Dagger 7.0 0.7 64 13 11 32.2 101.60     LegendNANA
11:00 Legend Double Dagger 7.1 0.6 63 15 10 32.2 101.59     LegendNANA
12:00 Legend Double Dagger 8.0 0.5 59 14 9 32.2 101.57     Mostly Cloudy
13:00 Legend Double Dagger 8.8 0.1 54 14 11 32.2 101.57     LegendNANA
14:00 Legend Double Dagger 9.0 1.2 58 14 10 32.2 101.57     LegendNANA
15:00 Legend Double Dagger 9.4 0.8 55 15 14 32.2 101.56     Mostly Cloudy
16:00 Legend Double Dagger 8.0 0.6 59 14 11 32.2 101.56     LegendNANA
17:00 Legend Double Dagger 8.3 0.7 59 15 14 32.2 101.53     LegendNANA
18:00 Legend Double Dagger 8.1 0.9 60 14 15 32.2 101.50     Mostly Cloudy
19:00 Legend Double Dagger 7.6 1.2 64 14 18 32.2 101.48     LegendNANA
20:00 Legend Double Dagger 7.0 2.0 70 13 18 40.2 101.44     LegendNANA
21:00 Legend Double Dagger 6.8 3.1 77 14 18 24.1 101.41     Mainly Clear
22:00 Legend Double Dagger 6.2 2.7 78 16 18 24.1 101.40     LegendNANA
23:00 Legend Double Dagger 3.8 0.7 80 22 11 24.1 101.38     LegendNANA

Notes on Data Quality.

Legend

  • E = Estimated
  • M = Missing
  • NA = Not Available
  • ‡ = Partner data that is not subject to review by the National Climate Archives
Date modified: